[[{"header":{"parameterUnit":"m.s-1","parameterCategory":1,"la1":30.2991,"la2":30.254,"lo1":-89.0895,"lo2":-89.0444,"dy":0.0017,"dx":0.0017,"nx":28,"ny":28,"refTime":"2025-11-18T09:00:00:Z","depth":0,"parameterNumber":2,"parameterNumberName":"U-component_of_WINDS"},"data":[0,0,0,0,0,0,0,0,0,0,0,0,0,0,0,0,0,0,0,0,0,0,0,0,0,0,0,0,0,0,0,0,0,0,0,0,0,0,0,0,0,0,0,0,0,0,0,0,0,0,0,0,0,0,0,0,0,0,-1.9841,-1.9842,0,-1.9918,-1.9919,-1.9919,-1.9917,-1.9916,-1.9915,-1.9914,-1.9995,-1.9998,-2.0001,0,0,0,0,0,0,0,0,0,0,0,0,0,-1.9693,-1.9696,-1.9841,-1.9842,-1.9843,-1.9918,-1.9919,-1.992,-1.9917,-1.9916,-1.9914,-1.9913,-1.9993,-1.9997,-2.0001,0,0,0,0,0,0,0,0,0,0,0,0,0,-1.9762,-1.9697,-1.9841,-1.985,-1.9852,-1.9917,-1.9919,-1.992,-1.9917,-1.9916,-1.9914,-1.9913,-1.9992,-1.9997,-2.0002,-2.0063,0,0,-2.0016,-2.0018,0,0,0,0,0,0,0,0,-1.9758,-1.9768,-1.9848,-1.985,-1.9852,-1.9906,-1.9896,-1.9968,-1.9918,-1.9893,-1.9914,-1.9912,-1.9967,-1.9973,-1.9991,-2.0067,-2.007,-2.0016,-2.0019,-2.0021,-2.0023,0,0,0,0,0,0,0,-1.9754,-1.9765,-1.9871,-1.9849,-1.9852,-1.9851,-1.9859,-1.991,-1.9938,-1.9895,-1.9895,-1.9904,-1.9967,-1.9987,-1.9993,-2.0071,-2.0016,-2.002,-2.0023,-2.0025,-2.02,-2.0202,0,0,0,0,0,0,-1.9747,-1.9761,-1.9869,-1.9874,-1.98,-1.9855,-1.9864,-1.989,-1.9937,-1.9943,-1.9905,-1.9903,-1.9979,-1.9988,-1.9996,-2.007,-2.0021,-2.0026,-2.0028,-2.0198,-2.02,-2.0202,0,0,0,0,0,0,-1.9743,-1.9756,-1.9866,-1.9817,-1.9831,-1.986,-1.9889,-1.9893,-1.9912,-1.9945,-1.995,-1.992,-1.9978,-1.9989,-2.0046,-2.0073,-2.0028,-2.0032,-2.0196,-2.0199,-2.0201,-2.0219,0,0,0,0,0,0,-1.9739,-1.9755,-1.9778,-1.9818,-1.9834,-1.9914,-1.989,-1.9895,-1.992,-1.9918,-1.996,-1.9965,-1.9978,-2.0039,-2.0051,-2.0078,-2.0036,-2.0194,-2.0197,-2.02,-2.0216,-2.0222,-2.0227,0,0,0,0,0,-1.9734,-1.9781,-1.978,-1.9793,-1.9863,-1.9916,-1.9925,-1.9938,-1.9922,-1.9946,-1.9967,-1.9964,-2.0068,-2.0045,-2.0058,-2.0087,-2.0192,-2.0196,-2.02,-2.0213,-2.022,-2.0226,0,0,0,0,0,0,-1.9745,-1.9786,-1.9785,-1.9847,-1.9877,-1.9915,-1.9945,-1.9945,-1.9982,-1.9979,-1.9994,-2.0004,-2.006,-2.008,-2.0053,-2.0149,-2.0128,-2.0135,-2.0134,-2.0141,-2.0146,-2.014,-2.004,0,0,0,0,0,-1.9755,-1.9793,-1.9827,-1.9878,-1.9894,-1.9917,-1.994,-1.9947,-1.998,-1.9994,-2.0019,-2.0051,-2.0091,-2.0117,-2.0156,-2.0219,-2.0227,-2.0246,-2.0251,-2.0255,-2.0261,-2.0295,-2.0303,-2.0215,-2.0215,-2.0215,0,0,-1.9775,-1.9802,-1.9826,-1.9881,-1.9906,-1.9945,-1.9928,-1.9971,-2.0,-2.0,-2.0055,-2.0074,-2.0112,-2.0171,-2.0199,-2.0189,-2.0287,-2.0261,-2.0264,-2.0267,-2.03,-2.0308,-2.0315,-2.0218,-2.0218,-2.0217,0,0,-1.9832,-1.9857,-1.9901,-1.9926,-1.9963,-1.9978,-1.9989,-2.0027,-2.0039,-2.0094,-2.0094,-2.013,-2.0199,-2.0225,-2.0247,-2.0313,-2.0311,-2.0325,-2.0353,-2.0386,-2.0393,-2.0399,-2.0421,-2.0429,-2.0331,-2.0331,-2.0331,0,-1.9853,-1.9912,-1.9924,-1.9967,-1.9991,-1.9992,-2.0036,-2.006,-2.0109,-2.0125,-2.0114,-2.0199,-2.0225,-2.029,-2.0306,-2.0324,-2.0336,-2.032,-2.039,-2.0397,-2.0403,-2.0424,-2.0433,-2.0332,-2.0332,-2.0332,-2.0332,0,-1.9935,-1.9976,-2.0007,-2.0052,-2.008,-2.0124,-2.0143,-2.017,-2.0174,-2.019,-2.0246,-2.0276,-2.032,-2.0336,-2.0342,-2.0402,-2.0395,-2.0387,-2.0366,-2.0412,-2.0432,-2.0441,-2.0334,-2.0334,-2.0333,-2.0333,0,0,-2.0001,-2.0052,-2.0063,-2.0083,-2.0124,-2.0156,-2.02,-2.0242,-2.0264,-2.0297,-2.0334,-2.0392,-2.0384,-2.0409,-2.0418,-2.0447,-2.0495,-2.0435,-2.0436,-2.0444,-2.0562,-2.0567,-2.0576,-2.0495,-2.0497,-2.0498,-2.0559,0,-2.0061,-2.0137,-2.0149,-2.0217,-2.0254,-2.0255,-2.0293,-2.0322,-2.0339,-2.0373,-2.0392,-2.0431,-2.0419,-2.0434,-2.0463,-2.0483,-2.0519,-2.0479,-2.0529,-2.053,-2.0518,-2.0587,-2.0593,-2.0649,-2.0567,-2.0568,-2.0569,0,-2.0142,-2.0176,-2.0246,-2.0281,-2.0297,-2.0331,-2.037,-2.0403,-2.0436,-2.0446,-2.0473,-2.0478,-2.0524,-2.0501,-2.0564,-2.0536,-2.0557,-2.0571,-2.0573,-2.0577,-2.0552,-2.0592,-2.0667,-2.0675,-2.0582,-2.0581,-2.058,0,-2.0181,-2.0245,-2.0295,-2.0312,-2.0354,-2.0378,-2.0396,-2.0428,-2.0452,-2.0487,-2.0502,-2.0542,-2.0564,-2.0595,-2.061,-2.0593,-2.0671,-2.065,-2.068,-2.068,-2.0696,-2.0694,-2.0774,-2.0711,-2.0711,-2.0711,-2.0711,0,-2.0246,-2.0289,-2.0313,-2.0344,-2.0391,-2.0405,-2.0452,-2.047,-2.0498,-2.0533,-2.0537,-2.0569,-2.0588,-2.0623,-2.0636,-2.0685,-2.0695,-2.0704,-2.0707,-2.0703,-2.0702,-2.0716,-2.0712,-2.0713,-2.0713,-2.0712,-2.0712,0,-2.0298,-2.0316,-2.037,-2.0405,-2.0415,-2.0449,-2.0479,-2.0509,-2.0524,-2.0568,-2.0579,-2.0604,-2.0645,-2.0664,-2.0716,-2.0724,-2.078,-2.078,-2.0768,-2.0769,-2.0797,-2.0793,-2.0887,-2.09,-2.083,-2.0831,-2.0831,0,-2.0338,-2.0371,-2.0409,-2.0432,-2.0451,-2.0488,-2.0512,-2.0527,-2.0552,-2.0592,-2.0617,-2.0658,-2.0691,-2.0758,-2.0781,-2.082,-2.0821,-2.0851,-2.0827,-2.0822,-2.082,-2.0817,-2.082,-2.0855,-2.0856,-2.0856,-2.0857,0,-2.0407,-2.0413,-2.0448,-2.0485,-2.0514,-2.0544,-2.0574,-2.0593,-2.0612,-2.0641,-2.0682,-2.0708,-2.076,-2.0801,-2.0841,-2.0861,-2.0862,-2.0864,-2.0873,-2.0869,-2.086,-2.0864,-2.0778,-2.0862,-2.0861,-2.0861,-2.0861,-2.0861,-2.0453,-2.0482,-2.0512,-2.055,-2.0574,-2.0602,-2.0631,-2.065,-2.0685,-2.0727,-2.0734,-2.0778,-2.081,-2.0864,-2.0886,-2.0921,-2.0913,-2.0926,-2.0929,-2.0932,-2.0933,-2.0855,-2.0928,-2.0928,-2.0928,-2.0928,-2.0928,0,-2.052,-2.054,-2.0575,-2.0616,-2.0645,-2.0643,-2.0676,-2.0701,-2.0739,-2.0769,-2.0801,-2.0849,-2.0888,-2.0914,-2.0954,-2.0977,-2.0978,-2.0987,-2.0985,-2.0989,-2.0938,-2.0926,-2.0985,-2.0985,-2.0985,-2.0985,-2.0985,-2.0985,-2.0559,-2.0607,-2.0617,-2.0676,-2.0696,-2.0738,-2.0757,-2.0782,-2.0805,-2.0858,-2.089,-2.0906,-2.0934,-2.0976,-2.1012,-2.1018,-2.1032,-2.1041,-2.1047,-2.0999,-2.0993,-2.0987,-2.0975,-2.1044,-2.1044,-2.1095,-2.1096,-2.1096]},{"header":{"parameterUnit":"m.s-1","parameterCategory":1,"la1":30.2991,"la2":30.254,"lo1":-89.0895,"lo2":-89.0444,"dy":0.0017,"dx":0.0017,"nx":28,"ny":28,"refTime":"2025-11-18T09:00:00:Z","depth":0,"parameterNumber":3,"parameterNumberName":"V-component_of_WINDS"},"data":[0,0,0,0,0,0,0,0,0,0,0,0,0,0,0,0,0,0,0,0,0,0,0,0,0,0,0,0,0,0,0,0,0,0,0,0,0,0,0,0,0,0,0,0,0,0,0,0,0,0,0,0,0,0,0,0,0,0,-0.358,-0.3579,0,-0.3471,-0.347,-0.3468,-0.3409,-0.3409,-0.3409,-0.3409,-0.3291,-0.3289,-0.3286,0,0,0,0,0,0,0,0,0,0,0,0,0,-0.3731,-0.3728,-0.358,-0.3579,-0.3577,-0.3471,-0.347,-0.3468,-0.3409,-0.3409,-0.3409,-0.3409,-0.3292,-0.3289,-0.3285,0,0,0,0,0,0,0,0,0,0,0,0,0,-0.3648,-0.3727,-0.358,-0.3535,-0.353,-0.3472,-0.347,-0.3468,-0.3409,-0.3409,-0.3409,-0.3409,-0.3294,-0.3289,-0.3285,-0.326,0,0,-0.3271,-0.3269,0,0,0,0,0,0,0,0,-0.3653,-0.3642,-0.3543,-0.3538,-0.3533,-0.3454,-0.348,-0.3398,-0.341,-0.3455,-0.3409,-0.3409,-0.3345,-0.3336,-0.3316,-0.3255,-0.325,-0.3271,-0.3268,-0.3266,-0.3265,0,0,0,0,0,0,0,-0.3658,-0.3647,-0.3537,-0.3542,-0.3535,-0.3518,-0.3507,-0.3464,-0.3402,-0.3451,-0.3447,-0.3435,-0.3342,-0.3321,-0.3313,-0.3248,-0.3271,-0.3267,-0.3264,-0.3262,-0.3159,-0.3159,0,0,0,0,0,0,-0.3672,-0.3652,-0.354,-0.3533,-0.3594,-0.3516,-0.3503,-0.3479,-0.3403,-0.3391,-0.3435,-0.3433,-0.3329,-0.3318,-0.3309,-0.3274,-0.3266,-0.3262,-0.3259,-0.3159,-0.3159,-0.3159,0,0,0,0,0,0,-0.3676,-0.3663,-0.3545,-0.3591,-0.3575,-0.3514,-0.3488,-0.3477,-0.3456,-0.3391,-0.3379,-0.3425,-0.3328,-0.3315,-0.3273,-0.3269,-0.326,-0.3255,-0.3159,-0.3159,-0.3159,-0.3205,0,0,0,0,0,0,-0.368,-0.3665,-0.3656,-0.3592,-0.3573,-0.3513,-0.3488,-0.3475,-0.3449,-0.3444,-0.3378,-0.3367,-0.3327,-0.328,-0.3268,-0.3263,-0.3252,-0.3159,-0.3159,-0.3159,-0.3204,-0.3207,-0.3209,0,0,0,0,0,-0.3686,-0.3673,-0.3656,-0.3643,-0.3562,-0.3513,-0.3502,-0.3458,-0.3449,-0.3439,-0.3397,-0.3369,-0.3272,-0.3276,-0.3262,-0.3255,-0.3159,-0.3159,-0.3159,-0.3202,-0.3206,-0.3209,0,0,0,0,0,0,-0.3737,-0.3663,-0.3644,-0.361,-0.3569,-0.3503,-0.3489,-0.3463,-0.3422,-0.3419,-0.3364,-0.335,-0.3312,-0.3279,-0.3286,-0.3227,-0.3212,-0.3209,-0.325,-0.3253,-0.3256,-0.3264,-0.3248,0,0,0,0,0,-0.3744,-0.3713,-0.365,-0.3626,-0.3606,-0.3551,-0.3528,-0.3498,-0.3452,-0.3433,-0.3388,-0.3342,-0.3301,-0.3275,-0.3234,-0.3199,-0.3182,-0.3187,-0.319,-0.3192,-0.319,-0.3167,-0.3168,-0.3159,-0.3159,-0.3159,0,0,-0.3759,-0.3715,-0.3698,-0.3635,-0.3599,-0.3565,-0.3537,-0.3503,-0.3476,-0.3427,-0.3385,-0.335,-0.3295,-0.3256,-0.3237,-0.3228,-0.3189,-0.3192,-0.3195,-0.3191,-0.3168,-0.3168,-0.3169,-0.3159,-0.3159,-0.3159,0,0,-0.3768,-0.3733,-0.3709,-0.3673,-0.362,-0.3583,-0.3578,-0.3516,-0.3491,-0.3448,-0.341,-0.3377,-0.3308,-0.327,-0.3242,-0.3236,-0.3208,-0.3224,-0.3238,-0.3216,-0.3217,-0.3218,-0.3214,-0.3214,-0.3222,-0.3222,-0.3222,0,-0.3793,-0.3743,-0.3699,-0.3667,-0.3639,-0.3595,-0.3568,-0.3535,-0.347,-0.3451,-0.3442,-0.3353,-0.3313,-0.3264,-0.3263,-0.3242,-0.3231,-0.3231,-0.3221,-0.3221,-0.3221,-0.3217,-0.3216,-0.3224,-0.3224,-0.3224,-0.3224,0,-0.3775,-0.3741,-0.3727,-0.3667,-0.3638,-0.3609,-0.3558,-0.3533,-0.3505,-0.3469,-0.3424,-0.3375,-0.3322,-0.3308,-0.328,-0.3254,-0.325,-0.3232,-0.3216,-0.3225,-0.322,-0.3218,-0.3227,-0.3227,-0.3226,-0.3225,0,0,-0.3813,-0.373,-0.3725,-0.3697,-0.3634,-0.3606,-0.3573,-0.3524,-0.3503,-0.3459,-0.3429,-0.3371,-0.3354,-0.3321,-0.3288,-0.327,-0.3266,-0.3253,-0.3251,-0.3256,-0.3233,-0.3247,-0.3246,-0.3248,-0.3247,-0.3247,-0.3237,0,-0.3813,-0.3756,-0.3715,-0.3673,-0.3639,-0.3596,-0.3567,-0.3525,-0.349,-0.3454,-0.3415,-0.3374,-0.3355,-0.3335,-0.3315,-0.3271,-0.3261,-0.3271,-0.3217,-0.3216,-0.3232,-0.3244,-0.3258,-0.3252,-0.3235,-0.3235,-0.3235,0,-0.3806,-0.3765,-0.3721,-0.366,-0.3645,-0.362,-0.3571,-0.3538,-0.3488,-0.3463,-0.3427,-0.3393,-0.3355,-0.3343,-0.3288,-0.3296,-0.3271,-0.3246,-0.3245,-0.3237,-0.3226,-0.3236,-0.3249,-0.3247,-0.3232,-0.3232,-0.3232,0,-0.3837,-0.3771,-0.3736,-0.3713,-0.3642,-0.3626,-0.3595,-0.3544,-0.3517,-0.3472,-0.3453,-0.3404,-0.3377,-0.3339,-0.3292,-0.3288,-0.3241,-0.3225,-0.3218,-0.3219,-0.321,-0.3211,-0.3218,-0.3195,-0.3195,-0.3195,-0.3195,0,-0.3841,-0.3815,-0.3749,-0.3727,-0.3695,-0.3647,-0.3616,-0.3581,-0.3537,-0.3505,-0.3464,-0.3435,-0.3375,-0.3337,-0.33,-0.3259,-0.3247,-0.3225,-0.3215,-0.3228,-0.3231,-0.3211,-0.321,-0.3195,-0.3195,-0.3195,-0.3195,0,-0.3871,-0.3826,-0.3784,-0.3721,-0.3704,-0.3684,-0.3628,-0.3603,-0.3566,-0.3527,-0.3515,-0.3455,-0.3409,-0.3359,-0.3295,-0.327,-0.3231,-0.3217,-0.3249,-0.3243,-0.3238,-0.3239,-0.3232,-0.3228,-0.3209,-0.3209,-0.3209,0,-0.3876,-0.3855,-0.379,-0.3767,-0.3738,-0.3702,-0.3674,-0.3624,-0.3596,-0.3536,-0.3518,-0.347,-0.3428,-0.3356,-0.3306,-0.3256,-0.3241,-0.3242,-0.3233,-0.3246,-0.3239,-0.3241,-0.3238,-0.3244,-0.3245,-0.3245,-0.3245,0,-0.389,-0.3869,-0.3831,-0.3785,-0.3753,-0.3714,-0.3673,-0.3656,-0.3597,-0.3567,-0.3521,-0.3489,-0.3424,-0.3376,-0.332,-0.3285,-0.3255,-0.3249,-0.3244,-0.3257,-0.3275,-0.3264,-0.3255,-0.3249,-0.3248,-0.3248,-0.3248,-0.3248,-0.3907,-0.3886,-0.3837,-0.3795,-0.376,-0.3722,-0.3696,-0.3656,-0.3617,-0.3562,-0.3535,-0.3488,-0.3435,-0.3358,-0.3324,-0.3285,-0.3276,-0.3269,-0.3268,-0.3267,-0.327,-0.3283,-0.3275,-0.3275,-0.3275,-0.3275,-0.3274,0,-0.3917,-0.3884,-0.3846,-0.3791,-0.3758,-0.3735,-0.3687,-0.3661,-0.3621,-0.3576,-0.3536,-0.3482,-0.3434,-0.338,-0.3328,-0.3307,-0.3292,-0.3295,-0.3296,-0.3288,-0.3282,-0.3291,-0.3309,-0.3309,-0.3309,-0.3309,-0.3309,-0.3309,-0.3919,-0.3882,-0.3855,-0.3799,-0.3764,-0.372,-0.3695,-0.3659,-0.3623,-0.3565,-0.3526,-0.3491,-0.3442,-0.3386,-0.334,-0.3325,-0.3308,-0.3315,-0.3296,-0.3291,-0.3289,-0.3286,-0.3294,-0.3312,-0.3312,-0.3305,-0.3305,-0.3305]}]]